Date,TemperatureHighF,TemperatureAvgF,TemperatureLowF,DewpointHighF,DewpointAvgF,DewpointLowF,HumidityHigh,HumidityAvg,HumidityLow,PressureMaxIn,PressureMinIn,WindSpeedMaxMPH,WindSpeedAvgMPH,GustSpeedMaxMPH,PrecipitationSumIn
2013-2-1,75,63,52,57,50,41,80,63,49,30.29,30.18,14,2,14,0.00
2013-2-2,76,64,56,58,52,41,89,66,48,30.28,30.13,10,1,10,0.00
2013-2-3,75,64,55,58,52,42,95,67,34,30.19,30.08,8,0,8,0.00
2013-2-4,77,63,50,57,50,41,89,67,40,30.17,30.05,9,0,9,0.00
2013-2-5,79,67,55,65,60,54,96,79,56,30.11,30.02,10,0,10,0.00
2013-2-6,81,71,61,67,64,60,98,81,57,30.13,30.04,11,1,11,0.00
2013-2-7,83,73,63,68,65,62,96,76,55,30.10,29.97,14,1,14,0.00
2013-2-8,83,74,68,73,68,60,96,84,65,30.05,29.94,14,2,14,0.25
2013-2-9,80,71,63,69,64,59,98,79,64,30.19,30.04,14,2,14,0.00
2013-2-10,78,72,67,67,63,61,81,73,61,30.26,30.16,18,2,18,0.02
2013-2-11,80,73,67,68,65,62,89,77,64,30.24,30.13,12,1,12,0.00
2013-2-12,84,73,64,71,67,63,98,83,60,30.14,30.00,12,1,12,0.00
2013-2-13,84,76,68,74,71,67,98,85,70,30.04,29.93,14,2,14,0.00
2013-2-14,84,74,62,75,69,61,97,86,60,30.04,29.88,20,2,20,0.77
2013-2-15,73,67,63,70,66,62,98,96,86,30.04,29.96,7,0,7,1.07
2013-2-16,74,66,55,65,58,47,97,78,41,30.11,29.90,21,3,21,0.03
2013-2-17,60,52,46,47,33,24,76,49,28,30.33,30.11,18,2,18,0.00
2013-2-18,70,60,47,58,48,37,71,64,51,30.33,30.22,16,2,16,0.00
2013-2-19,78,70,58,68,62,54,95,78,65,30.22,30.10,11,1,11,0.00
2013-2-20,80,72,66,69,66,62,97,83,56,30.14,30.03,13,1,13,0.00
2013-2-21,81,74,65,69,67,64,97,80,61,30.11,30.01,11,1,11,0.00
2013-2-22,83,76,72,72,71,68,92,83,69,30.12,30.03,14,2,14,0.00
2013-2-23,84,77,72,74,72,69,95,83,68,30.07,29.94,13,2,13,0.00
2013-2-24,87,77,72,74,72,65,98,83,51,30.02,29.92,14,1,14,0.00
2013-2-25,86,77,70,74,71,68,97,82,61,29.94,29.83,14,1,14,0.00
2013-2-26,84,79,75,74,72,70,93,80,64,29.92,29.82,20,4,20,0.10
2013-2-27,77,71,66,74,68,65,96,90,71,29.99,29.88,7,0,7,0.21
2013-2-28,72,66,61,65,57,50,96,73,52,30.03,29.93,10,1,10,0.00